Tracking 28341 objects as of 5-Dec-2023
HD Live streaming from Space Station
objects crossing your sky now

DELTA 1 DEB

Track DELTA 1 DEB now!
10-day predictions


NORAD ID: 21545
Int'l Code: 1975-052GZ
Perigee: 1,010.6 km
Apogee: 1,359.4 km
Inclination: 99.6 °
Period: 108.9 minutes
Semi major axis: 7555 km
RCS: 0.0066 m2 (small)
Launch date: June 12, 1975
Source: United States (US)
Launch site: AIR FORCE WESTERN TEST RANGE (AFWTR)

Note: This is SATELLITE DEBRIS
Your satellite tracking list
Your tracking list is empty




NASA's NSSDC Master Catalog

Two Line Element Set (TLE):
1 21545U 75052GZ  23338.50442130  .00000286  00000-0  68184-3 0  9990
2 21545  99.6166 174.2355 0230818 110.0675 309.2963 13.21807358570568
Source of the keplerian elements: AFSPC